Time,TemperatureF,DewpointF,PressureIn,WindDirection,WindDirectionDegrees,WindSpeedMPH,WindSpeedGustMPH,Humidity,HourlyPrecipIn,Conditions,Clouds,dailyrainin,SoftwareType,DateUTC
2013-02-19 00:00:00,21.2,-4.1,30.11,West,273,3.6,3.6,32,0.00,CLR,,0.00,WeatherDisplay:10.37,2013-02-19 05:00:00,
2013-02-19 00:02:00,21.2,-4.1,30.11,WNW,294,3.5,3.5,32,0.00,CLR,,0.00,WeatherDisplay:10.37,2013-02-19 05:02:00,
2013-02-19 00:03:00,21.2,-4.1,30.11,NW,310,2.3,2.7,32,0.00,CLR,,0.00,WeatherDisplay:10.37,2013-02-19 05:03:00,
2013-02-19 00:08:00,21.0,-4.3,30.11,West,273,3.5,3.5,32,0.00,CLR,,0.00,WeatherDisplay:10.37,2013-02-19 05:08:00,
2013-02-19 00:13:00,21.0,-4.3,30.11,WNW,289,3.5,3.5,32,0.00,CLR,,0.00,WeatherDisplay:10.37,2013-02-19 05:13:00,
2013-02-19 00:18:00,21.0,-4.3,30.11,West,268,3.6,3.6,32,0.00,CLR,,0.00,WeatherDisplay:10.37,2013-02-19 05:18:00,
2013-02-19 00:23:00,21.0,-4.3,30.11,West,263,3.5,3.6,32,0.00,CLR,,0.00,WeatherDisplay:10.37,2013-02-19 05:23:00,
2013-02-19 00:28:00,21.2,-4.1,30.11,West,277,4.6,4.6,32,0.00,CLR,,0.00,WeatherDisplay:10.37,2013-02-19 05:28:00,
2013-02-19 00:33:00,21.2,-4.1,30.11,NW,309,4.6,4.6,32,0.00,CLR,,0.00,WeatherDisplay:10.37,2013-02-19 05:33:00,
2013-02-19 00:38:00,21.0,-4.3,30.11,WNW,290,3.5,3.6,32,0.00,CLR,,0.00,WeatherDisplay:10.37,2013-02-19 05:38:00,
2013-02-19 00:43:00,21.2,-4.1,30.11,West,275,3.5,3.5,32,0.00,CLR,,0.00,WeatherDisplay:10.37,2013-02-19 05:43:00,
2013-02-19 00:48:00,21.0,-4.3,30.11,WNW,295,5.8,5.8,32,0.00,CLR,,0.00,WeatherDisplay:10.37,2013-02-19 05:48:00,
2013-02-19 00:53:00,21.0,-4.3,30.11,West,272,5.8,5.8,32,0.00,CLR,,0.00,WeatherDisplay:10.37,2013-02-19 05:53:00,
2013-02-19 00:58:00,21.2,-4.1,30.11,WNW,287,5.4,5.4,32,0.00,CLR,,0.00,WeatherDisplay:10.37,2013-02-19 05:58:00,
2013-02-19 01:03:00,21.4,-4.0,30.11,West,264,4.6,5.4,32,0.00,CLR,,0.00,WeatherDisplay:10.37,2013-02-19 06:03:00,
2013-02-19 01:08:00,21.9,-3.5,30.11,WSW,251,5.8,5.8,32,0.00,CLR,,0.00,WeatherDisplay:10.37,2013-02-19 06:08:00,
2013-02-19 01:13:00,21.7,-3.6,30.11,WNW,289,3.5,3.6,32,0.00,CLR,,0.00,WeatherDisplay:10.37,2013-02-19 06:13:00,
2013-02-19 01:18:00,21.4,-4.0,30.11,West,274,5.8,5.8,32,0.00,CLR,,0.00,WeatherDisplay:10.37,2013-02-19 06:18:00,
2013-02-19 01:23:00,21.4,-4.0,30.11,NW,314,5.8,5.8,32,0.00,CLR,,0.00,WeatherDisplay:10.37,2013-02-19 06:23:00,
2013-02-19 01:28:00,21.9,-3.5,30.14,West,264,4.5,4.5,32,0.00,CLR,,0.00,WeatherDisplay:10.37,2013-02-19 06:28:00,
2013-02-19 01:33:00,21.6,-3.8,30.14,WNW,289,4.6,4.6,32,0.00,CLR,,0.00,WeatherDisplay:10.37,2013-02-19 06:33:00,
2013-02-19 01:38:00,21.9,-3.5,30.14,WNW,294,6.9,6.9,32,0.00,CLR,,0.00,WeatherDisplay:10.37,2013-02-19 06:38:00,
2013-02-19 01:43:00,21.7,-3.6,30.14,WNW,287,3.5,3.5,32,0.00,CLR,,0.00,WeatherDisplay:10.37,2013-02-19 06:43:00,
2013-02-19 01:48:00,21.7,-3.6,30.14,NW,307,3.5,3.6,32,0.00,CLR,,0.00,WeatherDisplay:10.37,2013-02-19 06:48:00,
2013-02-19 01:53:00,21.7,-3.6,30.14,WNW,282,3.5,3.5,32,0.00,CLR,,0.00,WeatherDisplay:10.37,2013-02-19 06:53:00,
2013-02-19 01:58:00,21.6,-3.8,30.14,WNW,298,3.5,3.5,32,0.00,CLR,,0.00,WeatherDisplay:10.37,2013-02-19 06:58:00,
2013-02-19 02:03:00,21.9,-3.5,30.14,West,267,2.7,2.7,32,0.00,CLR,,0.00,WeatherDisplay:10.37,2013-02-19 07:03:00,
2013-02-19 02:08:00,22.1,-3.3,30.14,West,267,5.8,5.8,32,0.00,CLR,,0.00,WeatherDisplay:10.37,2013-02-19 07:08:00,
2013-02-19 02:13:00,22.1,-3.3,30.14,WNW,297,3.5,3.5,32,0.00,CLR,,0.00,WeatherDisplay:10.37,2013-02-19 07:13:00,
2013-02-19 02:18:00,22.3,-3.2,30.14,WNW,303,3.5,3.6,32,0.00,CLR,,0.00,WeatherDisplay:10.37,2013-02-19 07:18:00,
2013-02-19 02:23:00,22.6,-2.8,30.14,WNW,298,4.6,4.6,32,0.00,CLR,,0.00,WeatherDisplay:10.37,2013-02-19 07:23:00,
2013-02-19 02:28:00,22.8,-2.7,30.14,West,271,3.5,4.0,32,0.00,CLR,,0.00,WeatherDisplay:10.37,2013-02-19 07:28:00,
2013-02-19 02:33:00,23.0,-2.5,30.14,WNW,299,4.0,4.0,32,0.00,CLR,,0.00,WeatherDisplay:10.37,2013-02-19 07:33:00,
2013-02-19 02:38:00,22.8,-2.7,30.14,NW,310,5.8,5.8,32,0.00,CLR,,0.00,WeatherDisplay:10.37,2013-02-19 07:38:00,
2013-02-19 02:43:00,22.5,-3.0,30.14,WNW,293,3.5,3.5,32,0.00,CLR,,0.00,WeatherDisplay:10.37,2013-02-19 07:43:00,
2013-02-19 02:48:00,22.3,-1.3,30.14,WNW,284,3.5,3.5,35,0.00,CLR,,0.00,WeatherDisplay:10.37,2013-02-19 07:48:00,
2013-02-19 02:53:00,22.1,-3.3,30.14,NW,305,3.5,3.5,32,0.00,CLR,,0.00,WeatherDisplay:10.37,2013-02-19 07:53:00,
2013-02-19 02:58:00,22.6,-2.8,30.14,WNW,286,3.5,3.5,32,0.00,CLR,,0.00,WeatherDisplay:10.37,2013-02-19 07:58:00,
2013-02-19 03:03:00,21.9,-3.5,30.14,WNW,292,3.5,3.5,32,0.00,CLR,,0.00,WeatherDisplay:10.37,2013-02-19 08:03:00,
2013-02-19 03:08:00,21.9,-3.5,30.14,NW,306,3.5,3.6,32,0.00,CLR,,0.00,WeatherDisplay:10.37,2013-02-19 08:08:00,
2013-02-19 03:13:00,21.9,-3.5,30.14,WNW,292,3.5,3.5,32,0.00,CLR,,0.00,WeatherDisplay:10.37,2013-02-19 08:13:00,
2013-02-19 03:18:00,21.6,-3.8,30.14,WNW,282,3.5,3.5,32,0.00,CLR,,0.00,WeatherDisplay:10.37,2013-02-19 08:18:00,
2013-02-19 03:23:00,21.6,-3.8,30.14,NW,304,3.5,3.5,32,0.00,CLR,,0.00,WeatherDisplay:10.37,2013-02-19 08:23:00,
2013-02-19 03:28:00,21.6,-3.8,30.14,WNW,290,2.3,0.0,32,0.00,CLR,,0.00,WeatherDisplay:10.37,2013-02-19 08:28:00,
2013-02-19 03:33:00,21.4,-4.0,30.14,NW,310,3.5,3.5,32,0.00,CLR,,0.00,WeatherDisplay:10.37,2013-02-19 08:33:00,
2013-02-19 03:38:00,21.9,-3.5,30.14,WNW,296,3.5,3.5,32,0.00,CLR,,0.00,WeatherDisplay:10.37,2013-02-19 08:38:00,
2013-02-19 03:43:00,21.9,-3.5,30.14,WNW,302,3.5,3.5,32,0.00,CLR,,0.00,WeatherDisplay:10.37,2013-02-19 08:43:00,
2013-02-19 03:48:00,21.9,-3.5,30.14,West,277,4.9,0.0,32,0.00,CLR,,0.00,WeatherDisplay:10.37,2013-02-19 08:48:00,
2013-02-19 03:53:00,22.1,-3.3,30.14,WNW,286,3.5,0.0,32,0.00,CLR,,0.00,WeatherDisplay:10.37,2013-02-19 08:53:00,
2013-02-19 03:58:00,22.1,-3.3,30.14,NW,314,3.5,0.0,32,0.00,CLR,,0.00,WeatherDisplay:10.37,2013-02-19 08:58:00,
2013-02-19 04:03:00,22.3,-3.2,30.14,NNW,337,0.0,0.0,32,0.00,CLR,,0.00,WeatherDisplay:10.37,2013-02-19 09:03:00,
2013-02-19 04:08:00,22.6,-2.8,30.14,WNW,287,0.0,0.0,32,0.00,CLR,,0.00,WeatherDisplay:10.37,2013-02-19 09:08:00,
2013-02-19 04:13:00,22.5,-3.0,30.14,WNW,287,0.0,0.0,32,0.00,CLR,,0.00,WeatherDisplay:10.37,2013-02-19 09:13:00,
2013-02-19 04:18:00,21.9,-3.5,30.14,WNW,287,0.0,0.0,32,0.00,CLR,,0.00,WeatherDisplay:10.37,2013-02-19 09:18:00,
2013-02-19 04:23:00,21.6,-3.8,30.14,WNW,287,0.0,0.0,32,0.00,CLR,,0.00,WeatherDisplay:10.37,2013-02-19 09:23:00,
2013-02-19 04:28:00,20.7,-2.7,30.11,WNW,287,0.0,0.0,35,0.00,CLR,,0.00,WeatherDisplay:10.37,2013-02-19 09:28:00,
2013-02-19 04:33:00,20.1,-5.1,30.11,WNW,287,0.0,0.0,32,0.00,CLR,,0.00,WeatherDisplay:10.37,2013-02-19 09:33:00,
2013-02-19 04:38:00,20.1,-5.1,30.11,WNW,287,0.0,0.0,32,0.00,CLR,,0.00,WeatherDisplay:10.37,2013-02-19 09:38:00,
2013-02-19 04:43:00,19.9,-5.2,30.11,WNW,287,0.0,0.0,32,0.00,CLR,,0.00,WeatherDisplay:10.37,2013-02-19 09:43:00,
2013-02-19 04:48:00,19.8,-5.4,30.11,WNW,287,0.0,0.0,32,0.00,CLR,,0.00,WeatherDisplay:10.37,2013-02-19 09:48:00,
2013-02-19 04:53:00,19.8,-5.4,30.11,WNW,287,0.0,0.0,32,0.00,CLR,,0.00,WeatherDisplay:10.37,2013-02-19 09:53:00,
2013-02-19 04:58:00,20.1,-5.1,30.11,WNW,287,0.0,0.0,32,0.00,CLR,,0.00,WeatherDisplay:10.37,2013-02-19 09:58:00,
2013-02-19 05:03:00,20.3,-4.9,30.11,WNW,287,0.0,0.0,32,0.00,CLR,,0.00,WeatherDisplay:10.37,2013-02-19 10:03:00,
2013-02-19 05:08:00,20.7,-4.6,30.11,WNW,287,0.0,0.0,32,0.00,CLR,,0.00,WeatherDisplay:10.37,2013-02-19 10:08:00,
2013-02-19 05:13:00,20.8,-4.4,30.11,WSW,244,0.0,0.0,32,0.00,CLR,,0.00,WeatherDisplay:10.37,2013-02-19 10:13:00,
2013-02-19 05:18:00,21.0,-4.3,30.11,WSW,244,0.0,0.0,32,0.00,CLR,,0.00,WeatherDisplay:10.37,2013-02-19 10:18:00,
2013-02-19 05:23:00,21.4,-4.0,30.11,WSW,244,0.0,0.0,32,0.00,CLR,,0.00,WeatherDisplay:10.37,2013-02-19 10:23:00,
2013-02-19 05:28:00,21.4,-4.0,30.11,WSW,244,0.0,0.0,32,0.00,CLR,,0.00,WeatherDisplay:10.37,2013-02-19 10:28:00,
2013-02-19 05:33:00,21.7,-3.6,30.11,WSW,244,0.0,0.0,32,0.00,CLR,,0.00,WeatherDisplay:10.37,2013-02-19 10:33:00,
2013-02-19 05:38:00,21.7,-3.6,30.11,WSW,244,0.0,0.0,32,0.00,CLR,,0.00,WeatherDisplay:10.37,2013-02-19 10:38:00,
2013-02-19 05:43:00,21.7,-3.6,30.11,WSW,244,0.0,0.0,32,0.00,CLR,,0.00,WeatherDisplay:10.37,2013-02-19 10:43:00,
2013-02-19 05:48:00,21.9,-3.5,30.11,WSW,244,0.0,0.0,32,0.00,CLR,,0.00,WeatherDisplay:10.37,2013-02-19 10:48:00,
2013-02-19 05:53:00,22.1,-3.3,30.11,WSW,245,0.0,0.0,32,0.00,CLR,,0.00,WeatherDisplay:10.37,2013-02-19 10:53:00,
2013-02-19 05:58:00,22.3,-3.2,30.11,WSW,245,0.0,0.0,32,0.00,CLR,,0.00,WeatherDisplay:10.37,2013-02-19 10:58:00,
2013-02-19 06:03:00,22.3,-3.2,30.11,WSW,245,0.0,0.0,32,0.00,CLR,,0.00,WeatherDisplay:10.37,2013-02-19 11:03:00,
2013-02-19 06:08:00,22.5,-3.0,30.11,WSW,245,0.0,0.0,32,0.00,CLR,,0.00,WeatherDisplay:10.37,2013-02-19 11:08:00,
2013-02-19 06:13:00,22.5,-3.0,30.08,WSW,245,0.0,0.0,32,0.00,CLR,,0.00,WeatherDisplay:10.37,2013-02-19 11:13:00,
2013-02-19 06:18:00,22.6,-2.8,30.08,WSW,245,0.0,0.0,32,0.00,CLR,,0.00,WeatherDisplay:10.37,2013-02-19 11:18:00,
2013-02-19 06:23:00,22.8,-2.7,30.11,WSW,245,0.0,0.0,32,0.00,CLR,,0.00,WeatherDisplay:10.37,2013-02-19 11:23:00,
2013-02-19 06:28:00,22.8,-2.7,30.11,WSW,245,0.0,0.0,32,0.00,CLR,,0.00,WeatherDisplay:10.37,2013-02-19 11:28:00,
2013-02-19 06:33:00,22.5,-3.0,30.11,WSW,245,0.0,0.0,32,0.00,CLR,,0.00,WeatherDisplay:10.37,2013-02-19 11:33:00,
2013-02-19 06:38:00,22.3,-3.2,30.11,WSW,245,0.0,0.0,32,0.00,CLR,,0.00,WeatherDisplay:10.37,2013-02-19 11:38:00,
2013-02-19 06:43:00,22.1,-3.3,30.11,WSW,245,0.0,0.0,32,0.00,CLR,,0.00,WeatherDisplay:10.37,2013-02-19 11:43:00,
2013-02-19 06:48:00,22.1,-3.3,30.11,West,280,0.0,0.0,32,0.00,CLR,,0.00,WeatherDisplay:10.37,2013-02-19 11:48:00,
2013-02-19 06:53:00,22.5,-3.0,30.11,WNW,294,0.0,0.0,32,0.00,CLR,,0.00,WeatherDisplay:10.37,2013-02-19 11:53:00,
2013-02-19 06:58:00,22.8,-2.7,30.11,WNW,294,0.0,0.0,32,0.00,CLR,,0.00,WeatherDisplay:10.37,2013-02-19 11:58:00,
2013-02-19 07:03:00,23.0,-2.5,30.11,WNW,294,0.0,0.0,32,0.00,CLR,,0.00,WeatherDisplay:10.37,2013-02-19 12:03:00,
2013-02-19 07:08:00,23.4,-2.2,30.11,WNW,294,0.0,0.0,32,0.00,CLR,,0.00,WeatherDisplay:10.37,2013-02-19 12:08:00,
2013-02-19 07:13:00,23.5,-2.1,30.11,WNW,294,0.0,0.0,32,0.00,CLR,,0.00,WeatherDisplay:10.37,2013-02-19 12:13:00,
2013-02-19 07:18:00,23.7,-1.9,30.11,WNW,294,0.0,0.0,32,0.00,CLR,,0.00,WeatherDisplay:10.37,2013-02-19 12:18:00,
2013-02-19 07:23:00,24.1,-1.6,30.08,WNW,294,0.0,0.0,32,0.00,CLR,,0.00,WeatherDisplay:10.37,2013-02-19 12:23:00,
2013-02-19 07:28:00,24.1,-1.6,30.08,WNW,294,0.0,0.0,32,0.00,CLR,,0.00,WeatherDisplay:10.37,2013-02-19 12:28:00,
2013-02-19 07:33:00,24.4,-1.3,30.08,WNW,294,0.0,0.0,32,0.00,CLR,,0.00,WeatherDisplay:10.37,2013-02-19 12:33:00,
2013-02-19 07:38:00,24.8,-0.9,30.08,WNW,294,0.0,0.0,32,0.00,CLR,,0.00,WeatherDisplay:10.37,2013-02-19 12:38:00,
2013-02-19 07:43:00,25.2,-1.3,30.08,WNW,294,0.0,0.0,31,0.00,CLR,,0.00,WeatherDisplay:10.37,2013-02-19 12:43:00,
2013-02-19 07:48:00,25.3,-1.1,30.08,WNW,294,0.0,0.0,31,0.00,CLR,,0.00,WeatherDisplay:10.37,2013-02-19 12:48:00,
2013-02-19 07:53:00,25.3,-1.1,30.08,WNW,294,0.0,0.0,31,0.00,CLR,,0.00,WeatherDisplay:10.37,2013-02-19 12:53:00,
2013-02-19 07:58:00,25.5,-1.0,30.08,WNW,294,0.0,0.0,31,0.00,CLR,,0.00,WeatherDisplay:10.37,2013-02-19 12:58:00,
2013-02-19 08:03:00,25.2,-1.3,30.08,WNW,294,0.0,0.0,31,0.00,CLR,,0.00,WeatherDisplay:10.37,2013-02-19 13:03:00,
2013-02-19 08:08:00,25.2,-1.3,30.08,WNW,294,0.0,0.0,31,0.00,CLR,,0.00,WeatherDisplay:10.37,2013-02-19 13:08:00,
2013-02-19 08:13:00,26.6,0.0,30.08,WNW,294,0.0,0.0,31,0.00,CLR,,0.00,WeatherDisplay:10.37,2013-02-19 13:13:00,
2013-02-19 08:18:00,27.3,0.6,30.08,WNW,294,0.0,0.0,31,0.00,CLR,,0.00,WeatherDisplay:10.37,2013-02-19 13:18:00,
2013-02-19 08:23:00,28.0,1.2,30.08,WNW,294,0.0,0.0,31,0.00,CLR,,0.00,WeatherDisplay:10.37,2013-02-19 13:23:00,
2013-02-19 08:28:00,28.6,1.0,30.08,WNW,295,0.0,0.0,30,0.00,CLR,,0.00,WeatherDisplay:10.37,2013-02-19 13:28:00,
2013-02-19 08:33:00,28.6,1.0,30.08,WNW,296,0.0,0.0,30,0.00,CLR,,0.00,WeatherDisplay:10.37,2013-02-19 13:33:00,
2013-02-19 08:38:00,28.8,1.2,30.08,SSW,200,2.3,0.0,30,0.00,CLR,,0.00,WeatherDisplay:10.37,2013-02-19 13:38:00,
2013-02-19 08:43:00,30.0,2.3,30.08,SSW,200,0.0,0.0,30,0.00,CLR,,0.00,WeatherDisplay:10.37,2013-02-19 13:43:00,
2013-02-19 08:48:00,31.6,3.7,30.08,SE,146,3.5,0.0,30,0.00,CLR,,0.00,WeatherDisplay:10.37,2013-02-19 13:48:00,
2013-02-19 08:53:00,35.2,6.8,30.08,SSW,211,3.5,0.0,30,0.00,CLR,,0.00,WeatherDisplay:10.37,2013-02-19 13:53:00,
2013-02-19 08:58:00,36.3,7.0,30.08,SW,216,0.0,0.0,29,0.00,CLR,,0.00,WeatherDisplay:10.37,2013-02-19 13:58:00,
2013-02-19 09:03:00,36.7,7.4,30.08,South,181,2.3,0.0,29,0.00,CLR,,0.00,WeatherDisplay:10.37,2013-02-19 14:03:00,
2013-02-19 09:08:00,38.1,8.6,30.08,SSE,168,2.3,0.0,29,0.00,CLR,,0.00,WeatherDisplay:10.37,2013-02-19 14:08:00,
2013-02-19 09:13:00,38.5,8.9,30.08,WSW,244,0.0,0.0,29,0.00,CLR,,0.00,WeatherDisplay:10.37,2013-02-19 14:13:00,
2013-02-19 09:18:00,36.9,7.5,30.08,SSE,158,4.6,4.6,29,0.00,CLR,,0.00,WeatherDisplay:10.37,2013-02-19 14:18:00,
2013-02-19 09:23:00,36.7,7.4,30.08,SE,137,4.6,4.6,29,0.00,CLR,,0.00,WeatherDisplay:10.37,2013-02-19 14:23:00,
2013-02-19 09:28:00,36.1,6.9,30.05,South,177,0.0,0.0,29,0.00,CLR,,0.00,WeatherDisplay:10.37,2013-02-19 14:28:00,
2013-02-19 09:33:00,35.2,6.8,30.05,SE,142,0.0,0.0,30,0.00,CLR,,0.00,WeatherDisplay:10.37,2013-02-19 14:33:00,
2013-02-19 09:38:00,35.1,6.7,30.08,SE,127,0.0,0.0,30,0.00,CLR,,0.00,WeatherDisplay:10.37,2013-02-19 14:38:00,
2013-02-19 09:43:00,34.2,5.9,30.08,SSW,211,0.0,0.0,30,0.00,CLR,,0.00,WeatherDisplay:10.37,2013-02-19 14:43:00,
2013-02-19 09:48:00,34.3,6.1,30.08,SSW,193,0.0,0.0,30,0.00,CLR,,0.00,WeatherDisplay:10.37,2013-02-19 14:48:00,
2013-02-19 09:53:00,35.1,6.7,30.05,SW,217,0.0,0.0,30,0.00,CLR,,0.00,WeatherDisplay:10.37,2013-02-19 14:53:00,
2013-02-19 09:58:00,35.1,6.7,30.05,SSW,205,3.5,3.5,30,0.00,CLR,,0.00,WeatherDisplay:10.37,2013-02-19 14:58:00,
2013-02-19 10:03:00,35.1,6.7,30.05,WNW,299,0.0,0.0,30,0.00,CLR,,0.00,WeatherDisplay:10.37,2013-02-19 15:03:00,
2013-02-19 10:08:00,35.8,6.6,30.05,East,97,0.0,0.0,29,0.00,CLR,,0.00,WeatherDisplay:10.37,2013-02-19 15:08:00,
2013-02-19 10:13:00,36.1,6.9,30.05,SSE,161,3.1,3.1,29,0.00,CLR,,0.00,WeatherDisplay:10.37,2013-02-19 15:13:00,
2013-02-19 10:18:00,36.1,6.9,30.05,West,266,4.6,4.6,29,0.00,CLR,,0.00,WeatherDisplay:10.37,2013-02-19 15:18:00,
2013-02-19 10:23:00,36.7,7.4,30.05,ENE,70,2.3,0.0,29,0.00,CLR,,0.00,WeatherDisplay:10.37,2013-02-19 15:23:00,
2013-02-19 10:28:00,37.8,8.3,30.05,SSE,150,3.5,3.5,29,0.00,CLR,,0.00,WeatherDisplay:10.37,2013-02-19 15:28:00,
2013-02-19 10:33:00,38.1,8.6,30.05,SW,220,6.9,6.9,29,0.00,CLR,,0.00,WeatherDisplay:10.37,2013-02-19 15:33:00,
2013-02-19 10:38:00,38.7,9.1,30.05,South,191,3.5,3.5,29,0.00,CLR,,0.00,WeatherDisplay:10.37,2013-02-19 15:38:00,
2013-02-19 10:43:00,38.8,9.2,30.05,SSW,211,3.5,3.5,29,0.00,CLR,,0.00,WeatherDisplay:10.37,2013-02-19 15:43:00,
2013-02-19 10:48:00,38.7,9.1,30.05,SW,230,3.5,4.0,29,0.00,CLR,,0.00,WeatherDisplay:10.37,2013-02-19 15:48:00,
2013-02-19 10:53:00,40.3,9.7,30.05,SE,133,2.3,0.0,28,0.00,CLR,,0.00,WeatherDisplay:10.37,2013-02-19 15:53:00,
2013-02-19 10:58:00,40.3,9.7,30.02,SSW,203,3.5,3.5,28,0.00,CLR,,0.00,WeatherDisplay:10.37,2013-02-19 15:58:00,
2013-02-19 11:03:00,40.5,9.9,30.02,SW,215,3.5,3.5,28,0.00,CLR,,0.00,WeatherDisplay:10.37,2013-02-19 16:03:00,
2013-02-19 11:08:00,40.6,10.0,30.02,South,181,3.5,3.5,28,0.00,CLR,,0.00,WeatherDisplay:10.37,2013-02-19 16:08:00,
2013-02-19 11:13:00,41.0,10.3,30.02,SE,133,3.5,3.5,28,0.00,CLR,,0.00,WeatherDisplay:10.37,2013-02-19 16:13:00,
2013-02-19 11:18:00,41.2,10.5,30.02,SSE,166,4.6,4.6,28,0.00,CLR,,0.00,WeatherDisplay:10.37,2013-02-19 16:18:00,
2013-02-19 11:23:00,41.4,10.6,30.02,West,268,3.5,3.5,28,0.00,CLR,,0.00,WeatherDisplay:10.37,2013-02-19 16:23:00,
2013-02-19 11:28:00,41.9,11.1,30.02,SSW,205,5.8,5.8,28,0.00,CLR,,0.00,WeatherDisplay:10.37,2013-02-19 16:28:00,
2013-02-19 11:33:00,42.8,11.9,30.02,SSW,202,3.1,3.1,28,0.00,CLR,,0.00,WeatherDisplay:10.37,2013-02-19 16:33:00,
2013-02-19 11:38:00,41.7,11.0,30.02,SW,216,3.5,0.0,28,0.00,CLR,,0.00,WeatherDisplay:10.37,2013-02-19 16:38:00,
2013-02-19 11:43:00,42.8,11.9,30.02,SSW,202,3.5,0.0,28,0.00,CLR,,0.00,WeatherDisplay:10.37,2013-02-19 16:43:00,
2013-02-19 11:48:00,43.9,12.8,30.02,SSW,197,2.3,0.0,28,0.00,CLR,,0.00,WeatherDisplay:10.37,2013-02-19 16:48:00,
2013-02-19 11:53:00,42.4,11.6,29.99,SSE,148,2.3,2.3,28,0.00,CLR,,0.00,WeatherDisplay:10.37,2013-02-19 16:53:00,
2013-02-19 11:58:00,45.7,13.6,29.99,SSE,147,5.8,5.8,27,0.00,CLR,,0.00,WeatherDisplay:10.37,2013-02-19 16:58:00,
2013-02-19 12:03:00,46.2,14.0,29.99,WSW,250,4.6,4.6,27,0.00,CLR,,0.00,WeatherDisplay:10.37,2013-02-19 17:03:00,
2013-02-19 12:08:00,45.9,13.7,29.99,SSW,203,3.5,3.5,27,0.00,CLR,,0.00,WeatherDisplay:10.37,2013-02-19 17:08:00,
2013-02-19 12:13:00,42.8,11.9,29.99,SSE,167,5.8,5.8,28,0.00,CLR,,0.00,WeatherDisplay:10.37,2013-02-19 17:13:00,
2013-02-19 12:18:00,43.7,12.7,29.99,South,177,3.5,0.0,28,0.00,CLR,,0.00,WeatherDisplay:10.37,2013-02-19 17:18:00,
2013-02-19 12:23:00,43.9,12.8,29.99,SSW,198,3.5,3.5,28,0.00,CLR,,0.00,WeatherDisplay:10.37,2013-02-19 17:23:00,
2013-02-19 12:28:00,44.2,13.1,29.99,ESE,106,3.5,3.5,28,0.00,CLR,,0.00,WeatherDisplay:10.37,2013-02-19 17:28:00,
2013-02-19 12:33:00,43.5,12.5,29.99,SSW,212,4.6,4.6,28,0.00,CLR,,0.00,WeatherDisplay:10.37,2013-02-19 17:33:00,
2013-02-19 12:38:00,43.7,14.2,29.99,SSW,211,4.6,4.6,30,0.00,CLR,,0.00,WeatherDisplay:10.37,2013-02-19 17:38:00,
2013-02-19 12:43:00,44.1,13.0,29.96,East,100,3.5,0.0,28,0.00,CLR,,0.00,WeatherDisplay:10.37,2013-02-19 17:43:00,
2013-02-19 12:48:00,44.2,13.1,29.96,SSE,149,2.3,0.0,28,0.00,CLR,,0.00,WeatherDisplay:10.37,2013-02-19 17:48:00,
2013-02-19 12:53:00,43.5,12.5,29.96,SSE,165,2.3,0.0,28,0.00,CLR,,0.00,WeatherDisplay:10.37,2013-02-19 17:53:00,
2013-02-19 12:58:00,45.9,13.7,29.96,SE,130,6.9,6.9,27,0.00,CLR,,0.00,WeatherDisplay:10.37,2013-02-19 17:58:00,
2013-02-19 13:03:00,46.6,14.3,29.96,ESE,111,3.5,3.5,27,0.00,CLR,,0.00,WeatherDisplay:10.37,2013-02-19 18:03:00,
2013-02-19 13:08:00,46.9,14.6,29.96,ESE,103,3.5,3.5,27,0.00,CLR,,0.00,WeatherDisplay:10.37,2013-02-19 18:08:00,
2013-02-19 13:13:00,46.9,14.6,29.93,SE,128,3.5,3.5,27,0.00,CLR,,0.00,WeatherDisplay:10.37,2013-02-19 18:13:00,
2013-02-19 13:18:00,46.0,13.9,29.93,South,176,3.5,0.0,27,0.00,CLR,,0.00,WeatherDisplay:10.37,2013-02-19 18:18:00,
2013-02-19 13:23:00,45.5,13.4,29.93,SSE,157,2.3,0.0,27,0.00,CLR,,0.00,WeatherDisplay:10.37,2013-02-19 18:23:00,
2013-02-19 13:28:00,45.1,13.1,29.93,SSE,166,4.6,4.6,27,0.00,CLR,,0.00,WeatherDisplay:10.37,2013-02-19 18:28:00,
2013-02-19 13:33:00,44.6,12.6,29.93,SW,233,3.5,3.5,27,0.00,CLR,,0.00,WeatherDisplay:10.37,2013-02-19 18:33:00,
2013-02-19 13:38:00,44.6,12.6,29.93,SE,142,3.5,3.5,27,0.00,CLR,,0.00,WeatherDisplay:10.37,2013-02-19 18:38:00,
2013-02-19 13:43:00,44.4,13.3,29.93,ESE,104,4.6,4.6,28,0.00,CLR,,0.00,WeatherDisplay:10.37,2013-02-19 18:43:00,
2013-02-19 13:48:00,44.4,13.3,29.93,SE,142,3.5,3.5,28,0.00,CLR,,0.00,WeatherDisplay:10.37,2013-02-19 18:48:00,
2013-02-19 13:53:00,44.4,13.3,29.93,SW,234,0.0,0.0,28,0.00,CLR,,0.00,WeatherDisplay:10.37,2013-02-19 18:53:00,
2013-02-19 13:58:00,44.2,13.1,29.93,SSW,192,0.0,0.0,28,0.00,CLR,,0.00,WeatherDisplay:10.37,2013-02-19 18:58:00,
2013-02-19 14:03:00,44.1,13.0,29.93,ESE,102,0.0,0.0,28,0.00,CLR,,0.00,WeatherDisplay:10.37,2013-02-19 19:03:00,
2013-02-19 14:08:00,44.1,13.0,29.93,SSE,153,3.6,3.6,28,0.00,CLR,,0.00,WeatherDisplay:10.37,2013-02-19 19:08:00,
2013-02-19 14:13:00,44.2,13.1,29.90,ENE,71,3.5,0.0,28,0.00,CLR,,0.00,WeatherDisplay:10.37,2013-02-19 19:13:00,
2013-02-19 14:18:00,44.4,13.3,29.90,SW,222,3.5,3.5,28,0.00,CLR,,0.00,WeatherDisplay:10.37,2013-02-19 19:18:00,
2013-02-19 14:23:00,44.6,12.6,29.90,South,170,0.0,0.0,27,0.00,CLR,,0.00,WeatherDisplay:10.37,2013-02-19 19:23:00,
2013-02-19 14:28:00,44.4,13.3,29.90,East,100,0.0,0.0,28,0.00,CLR,,0.00,WeatherDisplay:10.37,2013-02-19 19:28:00,
2013-02-19 14:33:00,44.2,13.1,29.90,East,101,2.3,2.3,28,0.00,CLR,,0.00,WeatherDisplay:10.37,2013-02-19 19:33:00,
2013-02-19 14:38:00,44.1,13.0,29.90,East,96,4.6,4.6,28,0.00,CLR,,0.00,WeatherDisplay:10.37,2013-02-19 19:38:00,
2013-02-19 14:43:00,44.1,13.0,29.90,ESE,104,4.6,4.6,28,0.00,CLR,,0.00,WeatherDisplay:10.37,2013-02-19 19:43:00,
2013-02-19 14:48:00,43.7,12.7,29.90,ESE,106,3.5,3.5,28,0.00,CLR,,0.00,WeatherDisplay:10.37,2013-02-19 19:48:00,
2013-02-19 14:53:00,43.3,12.4,29.90,East,87,4.6,4.6,28,0.00,CLR,,0.00,WeatherDisplay:10.37,2013-02-19 19:53:00,
2013-02-19 14:58:00,43.2,12.2,29.87,East,101,3.5,3.5,28,0.00,CLR,,0.00,WeatherDisplay:10.37,2013-02-19 19:58:00,
2013-02-19 15:03:00,43.0,12.0,29.87,South,189,3.5,3.5,28,0.00,CLR,,0.00,WeatherDisplay:10.37,2013-02-19 20:03:00,
2013-02-19 15:08:00,43.0,12.0,29.87,ESE,115,3.5,3.5,28,0.00,CLR,,0.00,WeatherDisplay:10.37,2013-02-19 20:08:00,
2013-02-19 15:13:00,42.8,11.9,29.87,ESE,122,2.3,0.0,28,0.00,CLR,,0.00,WeatherDisplay:10.37,2013-02-19 20:13:00,
2013-02-19 15:18:00,42.8,11.9,29.87,ESE,118,2.3,0.0,28,0.00,CLR,,0.00,WeatherDisplay:10.37,2013-02-19 20:18:00,
2013-02-19 15:23:00,43.0,12.0,29.84,ESE,118,0.0,0.0,28,0.00,CLR,,0.00,WeatherDisplay:10.37,2013-02-19 20:23:00,
2013-02-19 15:28:00,42.6,11.7,29.84,ESE,108,3.5,3.6,28,0.00,CLR,,0.00,WeatherDisplay:10.37,2013-02-19 20:28:00,
2013-02-19 15:33:00,42.4,11.6,29.84,ESE,105,4.0,4.0,28,0.00,CLR,,0.00,WeatherDisplay:10.37,2013-02-19 20:33:00,
2013-02-19 15:38:00,42.4,11.6,29.84,ESE,106,3.5,3.5,28,0.00,CLR,,0.00,WeatherDisplay:10.37,2013-02-19 20:38:00,
2013-02-19 15:43:00,42.4,11.6,29.84,East,96,3.5,3.5,28,0.00,CLR,,0.00,WeatherDisplay:10.37,2013-02-19 20:43:00,
2013-02-19 15:48:00,42.4,11.6,29.84,ESE,109,2.3,2.7,28,0.00,CLR,,0.00,WeatherDisplay:10.37,2013-02-19 20:48:00,
2013-02-19 15:53:00,42.3,11.4,29.84,East,100,3.5,3.5,28,0.00,CLR,,0.00,WeatherDisplay:10.37,2013-02-19 20:53:00,
2013-02-19 15:58:00,42.4,11.6,29.84,ESE,102,3.5,3.5,28,0.00,CLR,,0.00,WeatherDisplay:10.37,2013-02-19 20:58:00,
2013-02-19 16:03:00,42.4,11.6,29.84,SE,133,3.5,0.0,28,0.00,CLR,,0.00,WeatherDisplay:10.37,2013-02-19 21:03:00,
2013-02-19 16:08:00,42.6,11.7,29.84,East,100,3.6,3.6,28,0.00,CLR,,0.00,WeatherDisplay:10.37,2013-02-19 21:08:00,
2013-02-19 16:13:00,42.8,11.9,29.81,East,96,3.5,3.5,28,0.00,CLR,,0.00,WeatherDisplay:10.37,2013-02-19 21:13:00,
2013-02-19 16:18:00,42.8,11.9,29.81,SSE,163,5.8,5.8,28,0.00,CLR,,0.00,WeatherDisplay:10.37,2013-02-19 21:18:00,
2013-02-19 16:23:00,42.8,11.9,29.81,SE,128,3.5,3.5,28,0.00,CLR,,0.00,WeatherDisplay:10.37,2013-02-19 21:23:00,
2013-02-19 16:28:00,43.0,12.0,29.81,SE,129,3.5,0.0,28,0.00,CLR,,0.00,WeatherDisplay:10.37,2013-02-19 21:28:00,
2013-02-19 16:33:00,42.6,11.7,29.81,SE,143,3.5,0.0,28,0.00,CLR,,0.00,WeatherDisplay:10.37,2013-02-19 21:33:00,
2013-02-19 16:38:00,42.3,11.4,29.81,ENE,63,3.5,3.5,28,0.00,CLR,,0.00,WeatherDisplay:10.37,2013-02-19 21:38:00,
2013-02-19 16:43:00,42.3,11.4,29.81,SSE,159,8.1,8.1,28,0.00,CLR,,0.00,WeatherDisplay:10.37,2013-02-19 21:43:00,
2013-02-19 16:48:00,42.3,11.4,29.81,SSE,155,5.8,5.8,28,0.00,CLR,,0.00,WeatherDisplay:10.37,2013-02-19 21:48:00,
2013-02-19 16:53:00,42.4,11.6,29.81,North,10,2.3,0.0,28,0.00,CLR,,0.00,WeatherDisplay:10.37,2013-02-19 21:53:00,
2013-02-19 16:58:00,42.3,11.4,29.81,SW,227,4.6,4.6,28,0.00,CLR,,0.00,WeatherDisplay:10.37,2013-02-19 21:58:00,
2013-02-19 17:03:00,41.5,10.8,29.81,SSE,154,0.0,0.0,28,0.00,CLR,,0.00,WeatherDisplay:10.37,2013-02-19 22:03:00,
2013-02-19 17:08:00,41.5,10.8,29.81,SSE,159,2.2,0.0,28,0.00,CLR,,0.00,WeatherDisplay:10.37,2013-02-19 22:08:00,
2013-02-19 17:13:00,41.0,10.3,29.81,South,184,0.0,0.0,28,0.00,CLR,,0.00,WeatherDisplay:10.37,2013-02-19 22:13:00,
2013-02-19 17:18:00,41.0,10.3,29.81,SSW,198,3.5,3.5,28,0.00,CLR,,0.00,WeatherDisplay:10.37,2013-02-19 22:18:00,
2013-02-19 17:23:00,40.6,10.0,29.78,SE,128,3.5,3.5,28,0.00,CLR,,0.00,WeatherDisplay:10.37,2013-02-19 22:23:00,
2013-02-19 17:28:00,40.8,12.5,29.78,SSE,152,0.0,0.0,31,0.00,CLR,,0.00,WeatherDisplay:10.37,2013-02-19 22:28:00,
2013-02-19 17:33:00,40.6,12.3,29.78,ESE,118,0.0,0.0,31,0.00,CLR,,0.00,WeatherDisplay:10.37,2013-02-19 22:33:00,
2013-02-19 17:38:00,40.3,12.0,29.78,ESE,118,0.0,0.0,31,0.00,CLR,,0.00,WeatherDisplay:10.37,2013-02-19 22:38:00,
2013-02-19 17:43:00,40.1,11.8,29.78,SE,136,3.5,0.0,31,0.00,CLR,,0.00,WeatherDisplay:10.37,2013-02-19 22:43:00,
2013-02-19 17:48:00,40.3,13.4,29.78,East,81,3.6,0.0,33,0.00,CLR,,0.00,WeatherDisplay:10.37,2013-02-19 22:48:00,
2013-02-19 17:53:00,40.3,13.4,29.78,ESE,116,0.0,0.0,33,0.00,CLR,,0.00,WeatherDisplay:10.37,2013-02-19 22:53:00,
2013-02-19 17:58:00,40.1,13.3,29.78,SSE,164,3.5,0.0,33,0.00,CLR,,0.00,WeatherDisplay:10.37,2013-02-19 22:58:00,
2013-02-19 18:03:00,40.1,15.2,29.78,SSE,150,0.0,0.0,36,0.00,CLR,,0.00,WeatherDisplay:10.37,2013-02-19 23:03:00,
2013-02-19 18:08:00,40.1,16.5,29.78,SSE,147,0.0,0.0,38,0.00,CLR,,0.00,WeatherDisplay:10.37,2013-02-19 23:08:00,
2013-02-19 18:13:00,39.7,16.8,29.75,SSE,147,0.0,0.0,39,0.00,CLR,,0.00,WeatherDisplay:10.37,2013-02-19 23:13:00,
2013-02-19 18:18:00,39.9,17.5,29.75,ESE,120,5.8,5.8,40,0.00,CLR,,0.00,WeatherDisplay:10.37,2013-02-19 23:18:00,
2013-02-19 18:23:00,39.7,17.9,29.75,SSE,162,0.0,0.0,41,0.00,CLR,,0.00,WeatherDisplay:10.37,2013-02-19 23:23:00,
2013-02-19 18:28:00,39.7,17.9,29.75,SE,129,3.5,0.0,41,0.00,CLR,,0.00,WeatherDisplay:10.37,2013-02-19 23:28:00,
2013-02-19 18:33:00,39.6,17.8,29.75,SE,133,2.3,0.0,41,0.00,CLR,,0.00,WeatherDisplay:10.37,2013-02-19 23:33:00,
2013-02-19 18:38:00,39.7,21.1,29.75,South,172,2.3,0.0,47,0.00,CLR,,0.00,WeatherDisplay:10.37,2013-02-19 23:38:00,
2013-02-19 18:43:00,39.7,20.6,29.75,ESE,116,0.0,0.0,46,0.00,CLR,,0.00,WeatherDisplay:10.37,2013-02-19 23:43:00,
2013-02-19 18:48:00,39.6,19.9,29.75,ESE,116,0.0,0.0,45,0.00,CLR,,0.00,WeatherDisplay:10.37,2013-02-19 23:48:00,
2013-02-19 18:53:00,39.4,20.3,29.75,SE,130,3.5,0.0,46,0.04,RA,,0.04,WeatherDisplay:10.37,2013-02-19 23:53:00,
2013-02-19 18:58:00,39.7,22.1,29.72,SE,130,0.0,0.0,49,0.04,RA,,0.04,WeatherDisplay:10.37,2013-02-19 23:58:00,
2013-02-19 19:03:00,39.9,22.8,29.72,SE,130,0.0,0.0,50,0.04,,,0.04,WeatherDisplay:10.37,2013-02-20 00:03:00,
2013-02-19 19:08:00,39.9,22.8,29.72,ESE,104,2.3,2.3,50,0.04,CLR,,0.04,WeatherDisplay:10.37,2013-02-20 00:08:00,
2013-02-19 19:13:00,39.9,22.8,29.72,ESE,104,0.0,0.0,50,0.04,CLR,,0.04,WeatherDisplay:10.37,2013-02-20 00:13:00,
2013-02-19 19:18:00,40.1,22.9,29.72,East,83,3.5,3.5,50,0.04,CLR,,0.04,WeatherDisplay:10.37,2013-02-20 00:18:00,
2013-02-19 19:23:00,40.1,22.9,29.72,SSE,162,2.3,2.3,50,0.04,CLR,,0.04,WeatherDisplay:10.37,2013-02-20 00:23:00,
2013-02-19 19:28:00,39.9,23.2,29.69,SSE,152,3.5,0.0,51,0.04,CLR,,0.04,WeatherDisplay:10.37,2013-02-20 00:28:00,
2013-02-19 19:33:00,39.9,23.2,29.69,ENE,74,3.5,3.5,51,0.04,CLR,,0.04,WeatherDisplay:10.37,2013-02-20 00:33:00,
2013-02-19 19:38:00,39.7,23.1,29.69,ESE,103,3.5,3.5,51,0.04,CLR,,0.04,WeatherDisplay:10.37,2013-02-20 00:38:00,
2013-02-19 19:43:00,39.9,23.2,29.69,ESE,102,2.3,0.0,51,0.04,CLR,,0.04,WeatherDisplay:10.37,2013-02-20 00:43:00,
2013-02-19 19:48:00,39.7,22.6,29.69,ESE,102,0.0,0.0,50,0.08,RA,,0.08,WeatherDisplay:10.37,2013-02-20 00:48:00,
2013-02-19 19:53:00,39.4,22.3,29.69,ESE,102,0.0,0.0,50,0.04,RA,,0.08,WeatherDisplay:10.37,2013-02-20 00:53:00,
2013-02-19 19:58:00,39.6,22.9,29.69,ESE,103,2.3,0.0,51,0.04,CLR,,0.08,WeatherDisplay:10.37,2013-02-20 00:58:00,
2013-02-19 20:03:00,39.9,23.7,29.69,ESE,102,0.0,0.0,52,0.04,CLR,,0.08,WeatherDisplay:10.37,2013-02-20 01:03:00,
2013-02-19 20:08:00,40.1,24.3,29.66,ESE,102,0.0,0.0,53,0.04,CLR,,0.08,WeatherDisplay:10.37,2013-02-20 01:08:00,
2013-02-19 20:13:00,39.9,23.7,29.66,ESE,114,2.3,0.0,52,0.08,RA,,0.12,WeatherDisplay:10.37,2013-02-20 01:13:00,
2013-02-19 20:18:00,40.1,23.9,29.66,ESE,114,2.2,0.0,52,0.08,RA,,0.12,WeatherDisplay:10.37,2013-02-20 01:18:00,
2013-02-19 20:23:00,40.1,23.9,29.66,ESE,114,2.3,0.0,52,0.08,CLR,,0.12,WeatherDisplay:10.37,2013-02-20 01:23:00,
2013-02-19 20:28:00,40.3,24.5,29.66,ENE,74,3.5,0.0,53,0.08,CLR,,0.12,WeatherDisplay:10.37,2013-02-20 01:28:00,
2013-02-19 20:33:00,39.9,23.7,29.66,South,177,0.0,0.0,52,0.08,CLR,,0.12,WeatherDisplay:10.37,2013-02-20 01:33:00,
2013-02-19 20:38:00,39.9,23.7,29.66,ENE,75,2.3,0.0,52,0.08,CLR,,0.12,WeatherDisplay:10.37,2013-02-20 01:38:00,
2013-02-19 20:43:00,40.6,25.3,29.63,East,101,3.5,3.5,54,0.08,CLR,,0.12,WeatherDisplay:10.37,2013-02-20 01:43:00,
2013-02-19 20:48:00,41.0,27.3,29.63,SSW,197,0.0,0.0,58,0.04,CLR,,0.12,WeatherDisplay:10.37,2013-02-20 01:48:00,
2013-02-19 20:53:00,41.0,26.9,29.63,SSE,165,2.3,0.0,57,0.04,CLR,,0.12,WeatherDisplay:10.37,2013-02-20 01:53:00,
2013-02-19 20:58:00,41.0,25.6,29.63,West,273,3.5,3.6,54,0.04,CLR,,0.12,WeatherDisplay:10.37,2013-02-20 01:58:00,
2013-02-19 21:03:00,40.6,24.4,29.63,WNW,302,3.5,3.5,52,0.04,CLR,,0.12,WeatherDisplay:10.37,2013-02-20 02:03:00,
2013-02-19 21:08:00,41.0,26.1,29.63,SE,124,3.5,3.5,55,0.04,CLR,,0.12,WeatherDisplay:10.37,2013-02-20 02:08:00,
2013-02-19 21:13:00,41.2,26.7,29.63,East,94,2.3,0.0,56,0.00,CLR,,0.16,WeatherDisplay:10.37,2013-02-20 02:13:00,
2013-02-19 21:18:00,41.4,29.7,29.63,East,94,0.0,0.0,63,0.04,RA,,0.16,WeatherDisplay:10.37,2013-02-20 02:18:00,
2013-02-19 21:23:00,40.5,27.2,29.63,East,94,3.5,0.0,59,0.04,RA,,0.16,WeatherDisplay:10.37,2013-02-20 02:23:00,
2013-02-19 21:28:00,40.1,25.2,29.60,WNW,285,3.5,3.6,55,0.04,CLR,,0.16,WeatherDisplay:10.37,2013-02-20 02:28:00,
2013-02-19 21:33:00,40.6,28.6,29.60,WNW,290,3.5,3.5,62,0.04,CLR,,0.16,WeatherDisplay:10.37,2013-02-20 02:33:00,
2013-02-19 21:38:00,40.6,29.0,29.60,WNW,290,0.0,0.0,63,0.04,CLR,,0.16,WeatherDisplay:10.37,2013-02-20 02:38:00,
2013-02-19 21:43:00,40.8,31.1,29.60,WNW,290,0.0,0.0,68,0.04,CLR,,0.16,WeatherDisplay:10.37,2013-02-20 02:43:00,
2013-02-19 21:48:00,40.8,31.1,29.60,WNW,290,0.0,0.0,68,0.04,CLR,,0.16,WeatherDisplay:10.37,2013-02-20 02:48:00,
2013-02-19 21:53:00,41.2,31.4,29.60,WNW,290,0.0,0.0,68,0.04,CLR,,0.16,WeatherDisplay:10.37,2013-02-20 02:53:00,
2013-02-19 21:58:00,41.4,31.6,29.60,WNW,290,0.0,0.0,68,0.04,CLR,,0.16,WeatherDisplay:10.37,2013-02-20 02:58:00,
2013-02-19 22:03:00,41.0,28.2,29.60,WNW,290,0.0,0.0,60,0.08,RA,,0.20,WeatherDisplay:10.37,2013-02-20 03:03:00,
2013-02-19 22:08:00,40.6,27.8,29.60,WNW,290,0.0,0.0,60,0.08,RA,,0.20,WeatherDisplay:10.37,2013-02-20 03:08:00,
2013-02-19 22:13:00,40.5,27.2,29.60,WNW,290,0.0,0.0,59,0.08,,,0.20,WeatherDisplay:10.37,2013-02-20 03:13:00,
2013-02-19 22:18:00,40.6,28.6,29.60,WNW,290,0.0,0.0,62,0.04,CLR,,0.20,WeatherDisplay:10.37,2013-02-20 03:18:00,
2013-02-19 22:23:00,40.6,28.2,29.57,WNW,290,0.0,0.0,61,0.04,CLR,,0.20,WeatherDisplay:10.37,2013-02-20 03:23:00,
2013-02-19 22:28:00,40.5,27.2,29.57,WNW,290,0.0,0.0,59,0.04,CLR,,0.20,WeatherDisplay:10.37,2013-02-20 03:28:00,
2013-02-19 22:33:00,39.9,24.6,29.57,WNW,290,0.0,0.0,54,0.04,CLR,,0.20,WeatherDisplay:10.37,2013-02-20 03:33:00,
2013-02-19 22:38:00,39.7,24.0,29.60,WNW,290,0.0,0.0,53,0.04,CLR,,0.20,WeatherDisplay:10.37,2013-02-20 03:38:00,
2013-02-19 22:43:00,40.3,27.1,29.60,WNW,290,0.0,0.0,59,0.04,CLR,,0.20,WeatherDisplay:10.37,2013-02-20 03:43:00,
2013-02-19 22:48:00,40.6,30.2,29.60,WNW,290,0.0,0.0,66,0.04,CLR,,0.20,WeatherDisplay:10.37,2013-02-20 03:48:00,
2013-02-19 22:53:00,40.5,30.4,29.57,WNW,290,0.0,0.0,67,0.04,CLR,,0.20,WeatherDisplay:10.37,2013-02-20 03:53:00,
2013-02-19 22:58:00,39.9,27.1,29.57,WNW,290,0.0,0.0,60,0.04,CLR,,0.20,WeatherDisplay:10.37,2013-02-20 03:58:00,
2013-02-19 23:03:00,40.1,29.6,29.57,WNW,290,0.0,0.0,66,0.00,CLR,,0.20,WeatherDisplay:10.37,2013-02-20 04:03:00,
2013-02-19 23:08:00,40.1,30.0,29.55,WNW,290,0.0,0.0,67,0.00,CLR,,0.20,WeatherDisplay:10.37,2013-02-20 04:08:00,
2013-02-19 23:13:00,39.7,28.2,29.55,WNW,290,0.0,0.0,63,0.00,CLR,,0.20,WeatherDisplay:10.37,2013-02-20 04:13:00,
2013-02-19 23:18:00,39.2,26.1,29.55,WNW,290,0.0,0.0,59,0.00,CLR,,0.20,WeatherDisplay:10.37,2013-02-20 04:18:00,
2013-02-19 23:23:00,39.0,25.5,29.55,WNW,290,0.0,0.0,58,0.04,RA,,0.24,WeatherDisplay:10.37,2013-02-20 04:23:00,
2013-02-19 23:28:00,38.5,24.6,29.55,WNW,290,0.0,0.0,57,0.04,RA,,0.24,WeatherDisplay:10.37,2013-02-20 04:28:00,
2013-02-19 23:33:00,38.3,24.0,29.55,WNW,290,0.0,0.0,56,0.04,,,0.24,WeatherDisplay:10.37,2013-02-20 04:33:00,
2013-02-19 23:38:00,38.5,25.8,29.55,WNW,290,0.0,0.0,60,0.04,CLR,,0.24,WeatherDisplay:10.37,2013-02-20 04:38:00,
2013-02-19 23:43:00,38.5,25.8,29.55,WNW,290,0.0,0.0,60,0.04,CLR,,0.24,WeatherDisplay:10.37,2013-02-20 04:43:00,
2013-02-19 23:48:00,38.5,26.2,29.55,WNW,290,0.0,0.0,61,0.04,CLR,,0.24,WeatherDisplay:10.37,2013-02-20 04:48:00,
2013-02-19 23:53:00,38.5,26.6,29.55,WNW,290,0.0,0.0,62,0.04,CLR,,0.24,WeatherDisplay:10.37,2013-02-20 04:53:00,
2013-02-19 23:58:00,38.5,26.6,29.55,WNW,290,0.0,0.0,62,0.04,CLR,,0.24,WeatherDisplay:10.37,2013-02-20 04:58:00,